Skip Page Navigation
NASA JPL Caltech
NASA Logo - Jet Propulsion Laboratory + View the NASA Portal
+ Near-Earth Object (NEO) Project
Search JPL
JPL Home Earth Solar System Stars & Galaxies Technology
JPL Solar System Dynamics
BODIES ORBITS EPHEMERIDES TOOLS PHYSICAL DATA DISCOVERY FAQ SITE MAP
JPL Small-Body Database Browser
Search: [ help ]  
17P/Holmes
Classification: Jupiter-family Comet          SPK-ID: 1000044
Ephemeris | Orbit Diagram | Orbital Elements | Physical Parameters | Discovery Circumstances | Close-Approach Data ]

[ hide orbit diagram ]
Orbit Diagram
Note: Make sure you have Java enabled on your browser to see the applet. This applet is provided as a 3D orbit visualization tool. The applet was implemented using 2-body methods, and hence should not be used for determining accurate long-term trajectories (over several years or decades) or planetary encounter circumstances. For accurate long-term ephemerides, please instead use our Horizons system.
Orbit Viewer

Additional Notes: the orbits shown in the applet are color coded. The planets are white lines, and the asteroid/comet is a blue line. The bright white line indicates the portion of the orbit that is above the ecliptic plane, and the darker portion is below the ecliptic plane. Likewise for the asteroid/comet orbit, the light blue indicates the portion above the ecliptic plane, and the dark blue the portion below the ecliptic plane.

Orbit Viewer applet originally written and kindly provided by Osamu Ajiki (AstroArts), and further modified by Ron Baalke (JPL).


:
Orbital Elements at Epoch 2454801.5 (2008-Dec-01.0) TDB
Reference: JPL K077/22 (heliocentric ecliptic J2000)
 Element Value Uncertainty (1-sigma)   Units 
e 0.4327764682045179833735 3.4499e-07  
a 3.6197000867184048189528 2.568e-07 AU
q 2.0531790672288261490052 1.1914e-06 AU
i 19.115030361102448352994 5.0857e-06 deg
node 326.8543630628543 3.8602e-05 deg
peri 24.30399085528731 4.8789e-05 deg
M 82.48459829310575 2.4275e-05 deg
tp 2454225.161446630409
(2007-May-04.66144664)
0.00013512 JED
period 2515.401462898251
6.89
0.00026768
7.329e-07
d
yr
n .1431183074789212 1.523e-08 deg/d
Q 5.186221106207983 3.6794e-07 AU

Additional Model Parameters
 Parameter Value Uncertainty (1-sigma) 
A1 [EST] -3.813042224831663E-9 8.051E-11
A2 [EST] 5.33757251378612E-10 7.644E-12
  Orbit Determination Parameters
   # obs. used (total)      3547  
   data-arc span      42525 days (116.43 yr)  
   first obs. used      1892-11-09  
   last obs. used      2009-04-15  
   planetary ephem.      DE405  
   SB-pert. ephem.      SB405-CPV-2  
   quality code      0  
   fit RMS      .67822  
   data source      ORB  
   producer      Nick Mastrodemos  
   solution date      2009-Jun-18 16:07:31  

Additional Information
 Earth MOID = 1.05816 AU 
 T_jup = 2.858 
[ show covariance matrix ]

Ephemeris | Orbit Diagram | Orbital Elements | Physical Parameters | Discovery Circumstances | Close-Approach Data ]

Physical Parameter Table
Parameter Symbol Value Units Sigma Reference Notes
comet total magnitude M1 10.6 mag 2. K077/22 from 189 observations, assumed slope, autocmod 2.4a
comet total magnitude slope K1 10.   n/a K077/22 autocmod 2.4a
diameter diameter 3.42 km n/a DASTCOM value unverified

17P/Holmes           Discovered 1892-Nov-07 by Holmes, Edwin at London, England
Reference: comet.disLast Updated: 2003-08-29

[ show close-approach data ]
Alternate Designations
 Perihelion 
Year
(est.)
 New-Style 
Desig
Roman
 Numeral 
Year/
 Letter 
 1993.6       1993 VII   1993i 
 1986.7       1986 V   1986f 
 1979.8       1979 IV   1979f 
 1972.9       1972 I   1971b 
 1966.0   17P/1964 O1   1964 X   1964i 
 1904.0       1906 III   1906f 
 1897.1   17P/1899 L1   1899 II   1899d 
 1890.3   17P/1892 V1   1892 III   1892f 
Ephemeris | Orbit Diagram | Orbital Elements | Physical Parameters | Discovery Circumstances | Close-Approach Data ]
ABOUT SSD CREDITS/AWARDS PRIVACY/COPYRIGHT GLOSSARY LINKS
FirstGov 2010-Feb-10 07:42 UT
(server date/time)  
NASA Home Page
Site Manager:   Donald K. Yeomans
Webmaster  Alan B. Chamberlin